FW7783 Weather Reports


Display with metric or nautical units.
time (UTC)temp
F
wind
direction
speed
MPH
gust
MPH
rain 1hr
in
rain 24hr
in
rain mn
in
humidity
%
barometer
mb
20260503033536 41 262 0.0 3.0 0.00 0.00 0.00 77 1014.5
20260503033042 41 259 1.0 4.0 0.00 0.00 0.00 77 1014.5
20260503032535 41 0 1.0 4.0 0.00 0.00 0.00 77 1014.5
20260503032035 41 246 0.0 3.0 0.00 0.00 0.00 77 1014.5
20260503031538 41 246 0.0 3.0 0.00 0.00 0.00 77 1014.5
20260503031035 41 238 0.0 3.0 0.00 0.00 0.00 77 1014.5
20260503030535 41 218 0.0 2.0 0.00 0.00 0.00 77 1014.6
20260503030045 41 0 0.0 2.0 0.00 0.00 0.00 77 1014.6
20260503025534 41 219 0.0 3.0 0.00 0.00 0.00 77 1014.6
20260503025034 41 219 0.0 3.0 0.00 0.00 0.00 77 1014.7
20260503024545 41 0 0.0 3.0 0.00 0.00 0.00 77 1014.7
20260503024035 41 214 0.0 3.0 0.00 0.00 0.00 77 1014.7
20260503023535 41 309 0.0 3.0 0.00 0.00 0.00 77 1014.7
20260503023050 41 0 0.0 3.0 0.00 0.00 0.00 77 1014.9
20260503022535 41 0 0.0 3.0 0.00 0.00 0.00 77 1014.9
20260503022035 41 0 0.0 3.0 0.00 0.00 0.00 77 1014.9
20260503021551 41 283 0.0 3.0 0.00 0.00 0.00 76 1015.0
20260503021035 41 0 0.0 0.0 0.00 0.00 0.00 76 1014.9
20260503020536 41 0 0.0 0.0 0.00 0.00 0.00 76 1015.0
20260503020039 41 0 0.0 0.0 0.00 0.00 0.00 76 1015.1
20260503015535 41 0 0.0 0.0 0.00 0.00 0.00 75 1015.0
20260503015034 41 0 0.0 0.0 0.00 0.00 0.00 75 1014.9
20260503014546 41 0 0.0 0.0 0.00 0.00 0.00 74 1015.0
20260503014035 42 0 0.0 0.0 0.00 0.00 0.00 74 1015.1
20260503013535 42 0 0.0 0.0 0.00 0.00 0.00 73 1015.1
20260503013038 42 0 0.0 0.0 0.00 0.00 0.00 73 1015.1
20260503012536 42 0 0.0 0.0 0.00 0.00 0.00 72 1015.1
20260503012037 42 0 0.0 0.0 0.00 0.00 0.00 73 1015.1
20260503011548 42 0 0.0 0.0 0.00 0.00 0.00 72 1015.1
20260503011037 42 0 0.0 0.0 0.00 0.00 0.00 72 1015.0
20260503010534 42 0 0.0 0.0 0.00 0.00 0.00 72 1015.1
20260503010045 42 0 0.0 0.0 0.00 0.00 0.00 72 1015.0
20260503005535 42 0 0.0 0.0 0.00 0.00 0.00 72 1015.0
20260503005036 42 0 0.0 0.0 0.00 0.00 0.00 72 1014.9
20260503004604 42 0 0.0 0.0 0.00 0.00 0.00 69 1014.8
20260503004034 42 0 0.0 0.0 0.00 0.00 0.00 68 1014.7
20260503003535 42 0 0.0 0.0 0.00 0.00 0.00 67 1014.6
20260503003042 42 0 0.0 2.0 0.00 0.00 0.00 69 1014.5
20260503002539 42 0 0.0 4.0 0.00 0.00 0.00 69 1014.6
20260503002035 43 0 0.0 4.0 0.00 0.00 0.00 69 1014.6
20260503001550 43 292 0.0 4.0 0.00 0.00 0.00 69 1014.4
20260503001035 43 0 0.0 0.0 0.00 0.00 0.00 70 1014.5
20260503000535 43 0 0.0 0.0 0.00 0.00 0.00 71 1014.5
20260503000046 43 0 0.0 0.0 0.00 0.00 0.00 71 1014.6
20260502235535 43 0 0.0 1.0 0.00 0.00 0.00 70 1014.5
20260502235035 43 0 0.0 1.0 0.00 0.00 0.00 70 1014.5
20260502234551 43 0 0.0 3.0 0.00 0.00 0.00 69 1014.5
20260502234126 43 0 0.0 3.0 0.00 0.00 0.00 68 1014.4
20260502233536 43 301 0.0 3.0 0.00 0.00 0.00 67 1014.4
20260502233045 43 298 1.0 3.0 0.00 0.00 0.00 67 1014.4
20260502232535 43 237 0.0 8.0 0.00 0.00 0.00 67 1014.5
20260502232035 43 0 1.0 8.0 0.00 0.00 0.00 65 1014.4
20260502231542 43 296 1.0 6.0 0.00 0.00 0.00 66 1014.5
20260502231035 43 0 1.0 6.0 0.00 0.00 0.00 66 1014.4
20260502230535 44 329 2.0 8.0 0.00 0.00 0.00 66 1014.4
20260502230047 44 301 1.0 8.0 0.00 0.00 0.00 66 1014.3
20260502225534 44 299 2.0 5.0 0.00 0.00 0.00 66 1014.3
20260502225035 44 289 1.0 4.0 0.00 0.00 0.00 66 1014.3
20260502224543 44 0 1.0 4.0 0.00 0.00 0.00 66 1014.3
20260502224034 44 306 2.0 4.0 0.00 0.00 0.00 67 1014.3
20260502223535 44 298 2.0 4.0 0.00 0.00 0.00 67 1014.2
20260502223047 44 305 1.0 4.0 0.00 0.00 0.00 66 1014.2
20260502222534 44 258 1.0 9.0 0.00 0.00 0.00 67 1014.2
20260502222034 44 275 1.0 9.0 0.00 0.00 0.00 65 1014.2
20260502221544 45 301 2.0 10.0 0.00 0.00 0.00 67 1014.2
20260502221034 44 252 1.0 10.0 0.00 0.00 0.00 66 1014.2
20260502220534 44 287 2.0 10.0 0.00 0.00 0.00 65 1014.2
20260502220114 44 250 2.0 8.0 0.00 0.00 0.00 66 1014.2
20260502215536 44 259 3.0 8.0 0.00 0.00 0.00 65 1014.2
20260502215034 45 307 3.0 8.0 0.00 0.00 0.00 65 1014.2
20260502214547 45 248 3.0 7.0 0.00 0.00 0.00 65 1014.2
20260502214035 45 284 2.0 8.0 0.00 0.00 0.00 64 1014.1
20260502213535 44 242 2.0 10.0 0.00 0.00 0.00 65 1014.1
20260502213041 44 321 3.0 10.0 0.00 0.00 0.00 63 1014.1
20260502212535 44 300 2.0 9.0 0.00 0.00 0.00 63 1014.1
20260502212035 44 343 3.0 9.0 0.00 0.00 0.00 64 1014.0
20260502211545 44 242 1.0 5.0 0.00 0.00 0.00 68 1014.0
20260502211038 44 294 0.0 5.0 0.00 0.00 0.00 67 1014.1
20260502210534 44 297 2.0 4.0 0.00 0.00 0.00 69 1014.3
20260502210039 44 211 1.0 4.0 0.00 0.00 0.00 68 1014.2
20260502205534 43 269 0.0 5.0 0.00 0.00 0.00 69 1014.3
20260502205035 43 306 2.0 5.0 0.00 0.00 0.00 68 1014.3
20260502204558 43 305 1.0 6.0 0.00 0.00 0.00 69 1014.3
20260502204033 43 289 2.0 6.0 0.00 0.00 0.00 69 1014.2
20260502203534 43 251 1.0 9.0 0.00 0.00 0.00 69 1014.2
20260502203059 43 0 1.0 9.0 0.00 0.00 0.00 70 1014.3
20260502202538 43 313 2.0 9.0 0.00 0.00 0.00 69 1014.2
20260502202035 43 302 2.0 6.0 0.00 0.00 0.00 70 1014.3
20260502201545 43 293 2.0 10.0 0.00 0.00 0.00 71 1014.4
20260502201035 43 281 3.0 10.0 0.00 0.00 0.00 70 1014.3
20260502200537 43 302 2.0 7.0 0.00 0.00 0.00 69 1014.3
20260502200040 43 294 2.0 8.0 0.00 0.00 0.00 70 1014.3
20260502195537 44 297 3.0 8.0 0.00 0.00 0.00 69 1014.3
20260502195034 44 240 2.0 7.0 0.00 0.00 0.00 70 1014.3
20260502194550 44 281 2.0 6.0 0.00 0.00 0.00 71 1014.4
20260502194034 44 342 3.0 13.0 0.00 0.00 0.00 70 1014.5
20260502193535 44 341 3.0 13.0 0.00 0.00 0.00 71 1014.5
20260502193038 44 298 2.0 11.0 0.00 0.00 0.00 69 1014.4
20260502192537 45 343 3.0 14.0 0.00 0.00 0.00 68 1014.4
20260502192034 45 325 4.0 14.0 0.00 0.00 0.00 66 1014.4
20260502191545 47 310 3.0 11.0 0.00 0.00 0.00 65 1014.4
20260502191038 48 291 2.0 8.0 0.00 0.00 0.00 63 1014.4
20260502190534 47 9 3.0 7.0 0.00 0.00 0.00 64 1014.4
20260502190054 47 335 2.0 13.0 0.00 0.00 0.00 63 1014.4
20260502185534 47 287 2.0 13.0 0.00 0.00 0.00 63 1014.5
20260502185034 46 274 3.0 9.0 0.00 0.00 0.00 65 1014.5
20260502184541 46 317 3.0 14.0 0.00 0.00 0.00 64 1014.5
20260502184035 46 334 2.0 14.0 0.00 0.00 0.00 65 1014.5
20260502183535 46 344 4.0 14.0 0.00 0.00 0.00 63 1014.4
20260502183046 47 333 2.0 13.0 0.00 0.00 0.00 65 1014.4
20260502182535 46 346 4.0 13.0 0.00 0.00 0.00 63 1014.5
20260502182034 47 327 2.0 9.0 0.00 0.00 0.00 65 1014.3
20260502181545 46 269 4.0 12.0 0.00 0.00 0.00 64 1014.4
20260502181034 46 229 3.0 12.0 0.00 0.00 0.00 64 1014.5
20260502180534 45 325 5.0 12.0 0.00 0.00 0.00 66 1014.4
20260502164034 45 333 2.0 7.0 0.00 0.00 0.00 64 1014.3
20260502163534 45 309 2.0 10.0 0.00 0.00 0.00 62 1014.4
20260502163106 45 342 3.0 10.0 0.00 0.00 0.00 62 1014.4
20260502162534 46 282 4.0 10.0 0.00 0.00 0.00 62 1014.3
20260502162035 45 281 3.0 9.0 0.00 0.00 0.00 63 1014.3
20260502161543 45 314 2.0 8.0 0.00 0.00 0.00 64 1014.4
20260502161035 44 293 3.0 8.0 0.00 0.00 0.00 63 1014.3
20260502160540 44 345 3.0 10.0 0.00 0.00 0.00 65 1014.2
20260502152037 45 229 3.0 6.0 0.00 0.00 0.00 57 1014.4
20260502151545 45 292 2.0 8.0 0.00 0.00 0.00 58 1014.4
20260502151034 45 300 2.0 8.0 0.00 0.00 0.00 58 1014.3
20260502150534 45 315 3.0 8.0 0.00 0.00 0.00 57 1014.5
20260502130535 41 246 3.0 11.0 0.00 0.00 0.00 77 1015.4
20260502123534 39 348 3.0 8.0 0.00 0.00 0.00 80 1015.5
20260502123057 39 283 2.0 8.0 0.00 0.00 0.00 81 1015.5
20260502122534 39 251 2.0 7.0 0.00 0.00 0.00 82 1015.5
20260502122035 39 289 3.0 9.0 0.00 0.00 0.00 82 1015.5
20260502121547 39 259 3.0 9.0 0.00 0.00 0.00 82 1015.4
20260502121035 39 298 1.0 7.0 0.00 0.00 0.00 84 1015.4
20260502120534 38 259 2.0 7.0 0.00 0.00 0.00 84 1015.4
20260502115534 38 240 2.0 7.0 0.00 0.00 0.00 85 1015.4
20260502115036 38 239 1.0 8.0 0.00 0.00 0.00 86 1015.3
20260502114549 38 299 1.0 8.0 0.00 0.00 0.00 86 1015.3
20260502114035 37 310 2.0 5.0 0.00 0.00 0.00 86 1015.3
20260502113535 37 286 2.0 6.0 0.00 0.00 0.00 87 1015.2
20260502113043 37 344 2.0 6.0 0.00 0.00 0.00 87 1015.3
20260502112534 37 292 1.0 4.0 0.00 0.00 0.00 87 1015.3
20260502112035 37 241 0.0 5.0 0.00 0.00 0.00 87 1015.2
20260502111543 37 290 1.0 5.0 0.00 0.00 0.00 88 1015.1
20260502111035 36 204 1.0 5.0 0.00 0.00 0.00 88 1015.1
20260502110535 36 305 2.0 5.0 0.00 0.00 0.00 88 1015.1
20260502110042 36 191 1.0 4.0 0.00 0.00 0.00 89 1015.0
20260502105535 36 300 0.0 3.0 0.00 0.00 0.00 89 1015.0
20260502105034 36 0 0.0 2.0 0.00 0.00 0.00 89 1014.8
20260502104538 36 0 0.0 2.0 0.00 0.00 0.00 89 1014.7
20260502104034 36 0 0.0 2.0 0.00 0.00 0.00 89 1014.7
20260502103534 36 0 0.0 2.0 0.00 0.00 0.00 89 1014.6
20260502103045 36 0 0.0 2.0 0.00 0.00 0.00 89 1014.5
20260502102535 36 0 0.0 2.0 0.00 0.00 0.00 89 1014.5
20260502102035 36 0 0.0 3.0 0.00 0.00 0.00 89 1014.5
20260502101544 36 302 1.0 4.0 0.00 0.00 0.00 89 1014.4
20260502101035 37 303 1.0 4.0 0.00 0.00 0.00 89 1014.3
20260502100535 37 306 1.0 3.0 0.00 0.00 0.00 90 1014.3
20260502091035 38 294 2.0 6.0 0.00 0.00 0.00 93 1013.8
20260502090535 38 289 2.0 5.0 0.00 0.00 0.00 94 1013.9
20260502071035 39 0 0.0 0.0 0.00 0.00 0.00 96 1013.0
20260502070535 39 0 0.0 0.0 0.00 0.00 0.00 96 1013.0
20260502070055 38 0 0.0 0.0 0.00 0.00 0.00 96 1013.1
20260502065535 38 0 0.0 0.0 0.00 0.00 0.00 96 1013.0
20260502065035 38 0 0.0 0.0 0.00 0.00 0.00 96 1013.1
20260502064549 38 0 0.0 1.0 0.00 0.00 0.00 96 1013.1
20260502064035 38 0 0.0 1.0 0.00 0.00 0.00 96 1013.1
20260502063535 38 0 0.0 0.0 0.00 0.00 0.00 95 1013.0
20260502063045 39 0 0.0 0.0 0.00 0.00 0.00 96 1013.0
20260502062534 39 0 0.0 0.0 0.00 0.00 0.00 96 1013.0
20260502062035 39 0 0.0 2.0 0.00 0.00 0.00 96 1013.0
20260502061545 39 0 0.0 2.0 0.00 0.00 0.00 96 1013.1
20260502061035 39 275 0.0 1.0 0.00 0.00 0.00 96 1013.2
20260502060535 39 0 0.0 0.0 0.00 0.00 0.00 96 1013.2
20260502060051 39 0 0.0 1.0 0.00 0.00 0.00 95 1013.3
20260502055535 39 0 0.0 1.0 0.00 0.00 0.00 95 1013.3
20260502055035 39 0 0.0 2.0 0.00 0.00 0.00 95 1013.3
20260502054547 39 0 0.0 2.0 0.00 0.00 0.00 95 1013.1
20260502054035 39 0 0.0 1.0 0.00 0.00 0.00 95 1013.1
20260502053535 39 0 0.0 0.0 0.00 0.00 0.00 95 1013.3
20260502053049 39 0 0.0 0.0 0.00 0.00 0.00 95 1013.3
20260502052535 39 0 0.0 0.0 0.00 0.00 0.00 95 1013.4
20260502052039 39 0 0.0 0.0 0.00 0.00 0.00 95 1013.4
20260502051546 39 0 0.0 0.0 0.00 0.00 0.00 95 1013.5
20260502051034 39 0 0.0 0.0 0.00 0.00 0.00 95 1013.4
20260502050534 39 0 0.0 0.0 0.00 0.00 0.00 95 1013.5
20260502050049 39 0 0.0 0.0 0.00 0.00 0.00 95 1013.4
20260502045535 39 0 0.0 1.0 0.00 0.00 0.00 95 1013.5
20260502045038 39 0 0.0 1.0 0.00 0.00 0.00 95 1013.4
20260502044551 39 0 0.0 0.0 0.00 0.00 0.00 95 1013.4
20260502044035 39 0 0.0 2.0 0.00 0.00 0.00 95 1013.5
20260502043535 39 0 0.0 2.0 0.00 0.00 0.00 95 1013.6
20260502043044 39 275 0.0 0.0 0.00 0.00 0.00 94 1013.6
20260502042535 39 0 0.0 0.0 0.00 0.00 0.00 94 1013.6
20260502042036 39 0 0.0 0.0 0.00 0.00 0.00 94 1013.5
20260502041548 39 0 0.0 0.0 0.00 0.00 0.00 94 1013.5
20260502041034 39 0 0.0 0.0 0.00 0.00 0.00 94 1013.5
20260502040535 39 0 0.0 0.0 0.00 0.00 0.00 94 1013.6
20260502040042 39 0 0.0 0.0 0.00 0.00 0.00 94 1013.6
20260502035535 39 0 0.0 0.0 0.00 0.00 0.00 94 1013.5
20260502035035 39 0 0.0 0.0 0.00 0.00 0.00 94 1013.6
20260502034545 39 0 0.0 0.0 0.00 0.00 0.00 94 1013.4
20260502034035 39 0 0.0 0.0 0.00 0.00 0.00 94 1013.4